Time,TemperatureF,DewpointF,PressureIn,WindDirection,WindDirectionDegrees,WindSpeedMPH,WindSpeedGustMPH,Humidity,HourlyPrecipIn,Conditions,Clouds,dailyrainin,SoftwareType,DateUTC
2017-11-18 00:13:00,59.9,56.0,30.03,NNW,334,4.0,-999.0,87,-99.99,,,0.00,weatherlink.com 1.10,2017-11-18 05:13:00,
2017-11-18 00:28:00,59.7,56.0,30.02,NNW,334,2.0,-999.0,87,-99.99,,,0.00,weatherlink.com 1.10,2017-11-18 05:28:00,
2017-11-18 00:43:00,59.5,56.0,30.02,NNW,334,2.0,-999.0,87,-99.99,,,0.00,weatherlink.com 1.10,2017-11-18 05:43:00,
2017-11-18 00:58:00,59.4,56.0,30.02,NNW,334,0.0,-999.0,88,-99.99,,,0.00,weatherlink.com 1.10,2017-11-18 05:58:00,
2017-11-18 01:13:00,59.3,56.0,30.01,NNW,334,2.0,-999.0,88,-99.99,,,0.00,weatherlink.com 1.10,2017-11-18 06:13:00,
2017-11-18 01:29:00,59.5,56.0,30.00,NW,308,4.0,-999.0,88,-99.99,,,0.00,weatherlink.com 1.10,2017-11-18 06:29:00,
2017-11-18 01:44:00,59.6,56.0,30.00,NW,309,4.0,-999.0,88,-99.99,,,0.00,weatherlink.com 1.10,2017-11-18 06:44:00,
2017-11-18 01:59:00,59.7,57.0,29.99,NW,309,4.0,-999.0,89,-99.99,,,0.00,weatherlink.com 1.10,2017-11-18 06:59:00,
2017-11-18 02:14:00,59.6,56.0,29.99,NW,309,4.0,-999.0,89,-99.99,,,0.00,weatherlink.com 1.10,2017-11-18 07:14:00,
2017-11-18 02:29:00,59.6,56.0,29.99,NW,309,1.0,-999.0,89,-99.99,,,0.00,weatherlink.com 1.10,2017-11-18 07:29:00,
2017-11-18 02:44:00,59.6,56.0,29.99,NW,309,1.0,-999.0,89,-99.99,,,0.00,weatherlink.com 1.10,2017-11-18 07:44:00,
2017-11-18 02:59:00,59.5,56.0,29.98,NW,310,2.0,-999.0,89,-99.99,,,0.00,weatherlink.com 1.10,2017-11-18 07:59:00,
2017-11-18 03:14:00,59.3,56.0,29.98,NW,304,2.0,-999.0,89,-99.99,,,0.00,weatherlink.com 1.10,2017-11-18 08:14:00,
2017-11-18 03:29:00,59.2,56.0,29.98,NW,304,0.0,-999.0,89,-99.99,,,0.00,weatherlink.com 1.10,2017-11-18 08:29:00,
2017-11-18 03:44:00,58.9,56.0,29.98,NW,304,0.0,-999.0,89,-99.99,,,0.00,weatherlink.com 1.10,2017-11-18 08:44:00,
2017-11-18 03:59:00,58.5,55.0,29.98,NW,304,0.0,-999.0,89,-99.99,,,0.00,weatherlink.com 1.10,2017-11-18 08:59:00,
2017-11-18 04:14:00,58.1,55.0,29.98,NW,304,0.0,-999.0,89,-99.99,,,0.00,weatherlink.com 1.10,2017-11-18 09:14:00,
2017-11-18 04:29:00,57.7,55.0,29.98,NW,304,0.0,-999.0,89,-99.99,,,0.00,weatherlink.com 1.10,2017-11-18 09:29:00,
2017-11-18 04:44:00,57.5,54.0,29.98,NW,304,0.0,-999.0,89,-99.99,,,0.00,weatherlink.com 1.10,2017-11-18 09:44:00,
2017-11-18 04:59:00,57.3,54.0,29.98,NW,304,0.0,-999.0,89,-99.99,,,0.00,weatherlink.com 1.10,2017-11-18 09:59:00,
2017-11-18 05:14:00,57.5,54.0,29.98,NW,304,0.0,-999.0,89,-99.99,,,0.00,weatherlink.com 1.10,2017-11-18 10:14:00,
2017-11-18 05:29:00,57.4,54.0,29.98,NW,304,0.0,-999.0,89,-99.99,,,0.00,weatherlink.com 1.10,2017-11-18 10:29:00,
2017-11-18 05:44:00,57.2,54.0,29.98,NW,304,0.0,-999.0,90,-99.99,,,0.00,weatherlink.com 1.10,2017-11-18 10:44:00,
2017-11-18 05:59:00,57.3,55.0,29.99,NW,304,0.0,-999.0,90,-99.99,,,0.00,weatherlink.com 1.10,2017-11-18 10:59:00,
2017-11-18 06:14:00,57.5,55.0,29.99,NW,304,2.0,-999.0,90,-99.99,,,0.00,weatherlink.com 1.10,2017-11-18 11:14:00,
2017-11-18 06:29:00,57.8,55.0,29.99,NW,304,1.0,-999.0,90,-99.99,,,0.00,weatherlink.com 1.10,2017-11-18 11:29:00,
2017-11-18 06:44:00,57.5,55.0,30.00,NW,304,1.0,-999.0,90,-99.99,,,0.00,weatherlink.com 1.10,2017-11-18 11:44:00,
2017-11-18 06:59:00,57.1,54.0,30.00,NW,304,0.0,-999.0,90,-99.99,,,0.00,weatherlink.com 1.10,2017-11-18 11:59:00,
2017-11-18 07:14:00,57.1,54.0,30.00,NW,304,0.0,-999.0,90,-99.99,,,0.00,weatherlink.com 1.10,2017-11-18 12:14:00,
2017-11-18 07:29:00,57.9,55.0,30.01,NW,304,0.0,-999.0,90,-99.99,,,0.00,weatherlink.com 1.10,2017-11-18 12:29:00,
2017-11-18 07:44:00,58.6,56.0,30.01,NW,304,0.0,-999.0,90,-99.99,,,0.00,weatherlink.com 1.10,2017-11-18 12:44:00,
2017-11-18 07:59:00,59.7,57.0,30.01,NW,304,0.0,-999.0,90,-99.99,,,0.00,weatherlink.com 1.10,2017-11-18 12:59:00,
2017-11-18 08:14:00,60.9,58.0,30.02,NW,304,0.0,-999.0,89,-99.99,,,0.00,weatherlink.com 1.10,2017-11-18 13:14:00,
2017-11-18 08:29:00,62.5,59.0,30.02,NW,304,0.0,-999.0,89,-99.99,,,0.00,weatherlink.com 1.10,2017-11-18 13:29:00,
2017-11-18 08:44:00,64.2,60.0,30.02,NW,304,1.0,-999.0,87,-99.99,,,0.00,weatherlink.com 1.10,2017-11-18 13:44:00,
2017-11-18 08:59:00,65.7,61.0,30.02,NW,304,0.0,-999.0,85,-99.99,,,0.00,weatherlink.com 1.10,2017-11-18 13:59:00,
2017-11-18 09:14:00,67.6,62.0,30.02,NW,304,0.0,-999.0,81,-99.99,,,0.00,weatherlink.com 1.10,2017-11-18 14:14:00,
2017-11-18 09:29:00,69.5,61.0,30.02,WNW,303,2.0,-999.0,75,-99.99,,,0.00,weatherlink.com 1.10,2017-11-18 14:29:00,
2017-11-18 09:44:00,70.7,61.0,30.02,West,261,0.0,-999.0,72,-99.99,,,0.00,weatherlink.com 1.10,2017-11-18 14:44:00,
2017-11-18 09:59:00,71.4,59.0,30.02,South,178,5.0,-999.0,65,-99.99,,,0.00,weatherlink.com 1.10,2017-11-18 14:59:00,
2017-11-18 10:14:00,72.1,58.0,30.01,SSW,205,4.0,-999.0,62,-99.99,,,0.00,weatherlink.com 1.10,2017-11-18 15:14:00,
2017-11-18 10:30:00,73.1,58.0,30.01,WSW,243,5.0,-999.0,60,-99.99,,,0.00,weatherlink.com 1.10,2017-11-18 15:30:00,
2017-11-18 10:45:00,73.6,59.0,30.00,WSW,241,5.0,-999.0,61,-99.99,,,0.00,weatherlink.com 1.10,2017-11-18 15:45:00,
2017-11-18 11:00:00,74.3,59.0,30.00,South,179,6.0,-999.0,60,-99.99,,,0.00,weatherlink.com 1.10,2017-11-18 16:00:00,
2017-11-18 11:15:00,74.6,59.0,30.00,SSW,197,5.0,-999.0,58,-99.99,,,0.00,weatherlink.com 1.10,2017-11-18 16:15:00,
2017-11-18 11:30:00,75.4,58.0,29.99,WSW,257,11.0,-999.0,55,-99.99,,,0.00,weatherlink.com 1.10,2017-11-18 16:30:00,
2017-11-18 11:45:00,75.9,56.0,29.98,SW,214,5.0,-999.0,51,-99.99,,,0.00,weatherlink.com 1.10,2017-11-18 16:45:00,
2017-11-18 12:00:00,75.5,58.0,29.97,SSW,209,7.0,-999.0,54,-99.99,,,0.00,weatherlink.com 1.10,2017-11-18 17:00:00,
2017-11-18 12:15:00,76.6,58.0,29.96,WSW,245,10.0,-999.0,53,-99.99,,,0.00,weatherlink.com 1.10,2017-11-18 17:15:00,
2017-11-18 12:30:00,77.1,58.0,29.95,SW,224,7.0,-999.0,51,-99.99,,,0.00,weatherlink.com 1.10,2017-11-18 17:30:00,
2017-11-18 12:45:00,77.6,57.0,29.94,SSW,205,2.0,-999.0,49,-99.99,,,0.00,weatherlink.com 1.10,2017-11-18 17:45:00,
2017-11-18 13:00:00,78.4,57.0,29.94,SW,226,4.0,-999.0,48,-99.99,,,0.00,weatherlink.com 1.10,2017-11-18 18:00:00,
2017-11-18 13:15:00,77.6,57.0,29.93,SSE,165,6.0,-999.0,49,-99.99,,,0.00,weatherlink.com 1.10,2017-11-18 18:15:00,
2017-11-18 13:30:00,78.3,56.0,29.92,SE,133,8.0,-999.0,47,-99.99,,,0.00,weatherlink.com 1.10,2017-11-18 18:30:00,
2017-11-18 13:45:00,78.4,57.0,29.92,ESE,118,7.0,-999.0,48,-99.99,,,0.00,weatherlink.com 1.10,2017-11-18 18:45:00,
2017-11-18 14:00:00,78.1,57.0,29.91,SW,216,3.0,-999.0,49,-99.99,,,0.00,weatherlink.com 1.10,2017-11-18 19:00:00,
2017-11-18 14:15:00,78.5,57.0,29.90,SE,128,9.0,-999.0,48,-99.99,,,0.00,weatherlink.com 1.10,2017-11-18 19:15:00,
2017-11-18 14:30:00,79.5,58.0,29.90,East,94,3.0,-999.0,48,-99.99,,,0.00,weatherlink.com 1.10,2017-11-18 19:30:00,
2017-11-18 14:45:00,79.6,58.0,29.89,NE,45,3.0,-999.0,47,-99.99,,,0.00,weatherlink.com 1.10,2017-11-18 19:45:00,
2017-11-18 15:00:00,79.3,56.0,29.89,East,97,3.0,-999.0,45,-99.99,,,0.00,weatherlink.com 1.10,2017-11-18 20:00:00,
2017-11-18 15:15:00,79.1,56.0,29.88,NE,55,3.0,-999.0,45,-99.99,,,0.00,weatherlink.com 1.10,2017-11-18 20:15:00,
2017-11-18 15:30:00,79.4,56.0,29.88,East,80,2.0,-999.0,44,-99.99,,,0.00,weatherlink.com 1.10,2017-11-18 20:30:00,
2017-11-18 15:45:00,79.6,55.0,29.88,ESE,108,4.0,-999.0,43,-99.99,,,0.00,weatherlink.com 1.10,2017-11-18 20:45:00,
2017-11-18 16:00:00,79.4,54.0,29.88,ESE,113,5.0,-999.0,42,-99.99,,,0.00,weatherlink.com 1.10,2017-11-18 21:00:00,
2017-11-18 16:15:00,78.5,55.0,29.88,ESE,118,4.0,-999.0,44,-99.99,,,0.00,weatherlink.com 1.10,2017-11-18 21:15:00,
2017-11-18 16:30:00,78.5,55.0,29.88,ESE,109,4.0,-999.0,45,-99.99,,,0.00,weatherlink.com 1.10,2017-11-18 21:30:00,
2017-11-18 16:45:00,78.5,55.0,29.89,ESE,110,4.0,-999.0,45,-99.99,,,0.00,weatherlink.com 1.10,2017-11-18 21:45:00,
2017-11-18 17:00:00,77.9,56.0,29.89,ESE,110,1.0,-999.0,47,-99.99,,,0.00,weatherlink.com 1.10,2017-11-18 22:00:00,
2017-11-18 17:15:00,76.4,56.0,29.89,ESE,110,1.0,-999.0,50,-99.99,,,0.00,weatherlink.com 1.10,2017-11-18 22:15:00,
2017-11-18 17:30:00,75.4,56.0,29.89,ESE,110,0.0,-999.0,51,-99.99,,,0.00,weatherlink.com 1.10,2017-11-18 22:30:00,
2017-11-18 17:45:00,74.3,56.0,29.89,ESE,111,2.0,-999.0,54,-99.99,,,0.00,weatherlink.com 1.10,2017-11-18 22:45:00,
2017-11-18 18:00:00,73.6,56.0,29.89,ESE,111,2.0,-999.0,55,-99.99,,,0.00,weatherlink.com 1.10,2017-11-18 23:00:00,
2017-11-18 18:16:00,73.5,57.0,29.89,ESE,111,1.0,-999.0,56,-99.99,,,0.00,weatherlink.com 1.10,2017-11-18 23:16:00,
2017-11-18 18:30:00,72.7,56.0,29.89,SE,127,6.0,-999.0,57,-99.99,,,0.00,weatherlink.com 1.10,2017-11-18 23:30:00,
2017-11-18 18:45:00,71.7,59.0,29.90,East,101,3.0,-999.0,65,-99.99,,,0.00,weatherlink.com 1.10,2017-11-18 23:45:00,
2017-11-18 19:00:00,71.0,60.0,29.91,East,94,1.0,-999.0,68,-99.99,,,0.00,weatherlink.com 1.10,2017-11-19 00:00:00,
2017-11-18 19:16:00,70.4,60.0,29.91,East,96,1.0,-999.0,70,-99.99,,,0.00,weatherlink.com 1.10,2017-11-19 00:16:00,
2017-11-18 19:30:00,69.9,60.0,29.91,East,98,3.0,-999.0,71,-99.99,,,0.00,weatherlink.com 1.10,2017-11-19 00:30:00,
2017-11-18 19:45:00,69.4,60.0,29.91,East,89,1.0,-999.0,72,-99.99,,,0.00,weatherlink.com 1.10,2017-11-19 00:45:00,
2017-11-18 20:01:00,68.9,60.0,29.91,East,95,3.0,-999.0,74,-99.99,,,0.00,weatherlink.com 1.10,2017-11-19 01:01:00,
2017-11-18 20:15:00,68.4,60.0,29.92,East,99,2.0,-999.0,75,-99.99,,,0.00,weatherlink.com 1.10,2017-11-19 01:15:00,
2017-11-18 20:30:00,67.8,60.0,29.92,East,99,3.0,-999.0,76,-99.99,,,0.00,weatherlink.com 1.10,2017-11-19 01:30:00,
2017-11-18 20:45:00,67.4,60.0,29.92,East,99,0.0,-999.0,77,-99.99,,,0.00,weatherlink.com 1.10,2017-11-19 01:45:00,
2017-11-18 21:00:00,67.0,60.0,29.92,East,99,0.0,-999.0,78,-99.99,,,0.00,weatherlink.com 1.10,2017-11-19 02:00:00,
2017-11-18 21:15:00,66.7,60.0,29.92,East,99,2.0,-999.0,79,-99.99,,,0.00,weatherlink.com 1.10,2017-11-19 02:15:00,
2017-11-18 21:30:00,66.6,60.0,29.92,East,99,0.0,-999.0,78,-99.99,,,0.00,weatherlink.com 1.10,2017-11-19 02:30:00,
2017-11-18 21:45:00,66.4,59.0,29.92,East,99,0.0,-999.0,78,-99.99,,,0.00,weatherlink.com 1.10,2017-11-19 02:45:00,
2017-11-18 22:00:00,65.4,59.0,29.92,East,99,0.0,-999.0,79,-99.99,,,0.00,weatherlink.com 1.10,2017-11-19 03:00:00,
2017-11-18 22:22:00,64.2,58.0,29.91,East,99,0.0,-999.0,81,-99.99,,,0.00,weatherlink.com 1.10,2017-11-19 03:22:00,
2017-11-18 22:37:00,63.5,58.0,29.92,East,99,0.0,-999.0,83,-99.99,,,0.00,weatherlink.com 1.10,2017-11-19 03:37:00,
2017-11-18 22:46:00,63.8,59.0,29.92,East,99,3.0,-999.0,84,-99.99,,,0.00,weatherlink.com 1.10,2017-11-19 03:46:00,
2017-11-18 23:00:00,64.0,58.0,29.92,East,99,0.0,-999.0,82,-99.99,,,0.00,weatherlink.com 1.10,2017-11-19 04:00:00,